Date String (YYYY-MM-DD hh:mm:ss) UTC,Instrument flags,Ambient pressure (hPa),Sample flow (lpm),Bypass flow (lpm),Sample temperature (°C),Ambient temperature (°C),ASC tube jacket temperature (°C),LED temperature (°C),Box temperature (°C),Sample RH (%),Span deviation,Mass concentration (μg/m³),Mass concentration (μg/m³),Mass concentration (μg/m³)
DateTimeUTC,F1_M11,P_M11,Q1_M11,Q2_M11,T1_M11,T2_M11,T3_M11,T4_M11,T5_M11,U1_M11,ZSPAN_M11,X0_M11,X2_M11,X1_M11
2022-04-23 06:00:00,,0808.2,5.00,0.00,27.2,25.9,00.0,36.3,28.9,07.6,0000.0,0011.02,0003.86,0001.46
2022-04-23 06:01:00,,0808.3,5.01,0.00,27.1,25.8,00.0,36.2,28.9,07.6,0000.0,0011.23,0003.84,0001.46
2022-04-23 06:02:00,,0808.4,4.99,0.00,27.1,25.8,00.0,36.2,28.9,07.7,0000.0,0011.44,0003.85,0001.44
2022-04-23 06:03:00,,0808.3,5.01,0.00,27.1,25.8,00.0,36.2,28.9,07.8,0000.0,0011.14,0003.79,0001.42
2022-04-23 06:04:00,,0808.4,4.99,0.00,27.1,25.8,00.0,36.2,28.9,07.8,0000.0,0011.60,0003.78,0001.42
2022-04-23 06:05:00,,0808.5,5.00,0.00,27.1,25.7,00.0,36.2,28.8,07.8,0000.0,0012.14,0003.72,0001.40
2022-04-23 06:06:00,,0808.6,5.00,0.00,27.1,25.7,00.0,36.1,28.7,07.8,0000.0,0012.07,0003.66,0001.40
2022-04-23 06:07:00,,0808.7,4.99,0.00,27.0,25.8,00.0,36.1,28.7,07.8,0000.0,0013.55,0003.63,0001.41
2022-04-23 06:08:00,,0808.6,5.01,0.00,27.0,25.8,00.0,36.1,28.8,08.2,0000.0,0013.77,0003.67,0001.42
2022-04-23 06:09:00,,0808.6,4.98,0.00,27.0,25.7,00.0,36.1,28.7,08.4,0000.0,0013.44,0003.64,0001.41
2022-04-23 06:10:00,,0808.6,5.01,0.00,27.0,25.7,00.0,36.1,28.7,08.2,0000.0,0013.48,0003.64,0001.41
2022-04-23 06:11:00,,0808.6,5.00,0.00,27.0,25.6,00.0,36.1,28.7,08.2,0000.0,0014.60,0003.69,0001.41
2022-04-23 06:12:00,,0808.5,5.00,0.00,26.9,25.6,00.0,36.0,28.7,08.3,0000.0,0015.05,0003.71,0001.42
2022-04-23 06:13:00,,0808.5,5.01,0.00,26.9,25.6,00.0,36.0,28.6,08.5,0000.0,0015.34,0003.76,0001.43
2022-04-23 06:14:00,,0808.5,4.99,0.00,26.9,25.6,00.0,36.0,28.6,08.7,0000.0,0016.56,0003.78,0001.44
2022-04-23 06:15:00,,0808.4,5.02,0.00,26.9,25.5,00.0,36.0,28.6,08.8,0000.0,0016.78,0003.82,0001.44
2022-04-23 06:16:00,,0808.5,4.98,0.00,26.8,25.5,00.0,35.9,28.6,08.9,0000.0,0015.65,0003.84,0001.44
2022-04-23 06:17:00,,0808.6,5.02,0.00,26.8,25.5,00.0,35.9,28.5,08.9,0000.0,0015.90,0003.89,0001.45
2022-04-23 06:18:00,,0808.5,4.99,0.00,26.8,25.5,00.0,35.9,28.5,08.9,0000.0,0014.73,0003.93,0001.45
2022-04-23 06:19:00,,0808.4,5.01,0.00,26.8,25.5,00.0,35.9,28.5,08.9,0000.0,0014.16,0003.87,0001.44
2022-04-23 06:20:00,,0808.3,4.99,0.00,26.7,25.4,00.0,35.8,28.4,08.9,0000.0,0014.11,0003.86,0001.44
2022-04-23 06:21:00,,0808.3,5.02,0.00,26.7,25.4,00.0,35.8,28.4,08.8,0000.0,0014.21,0003.87,0001.45
2022-04-23 06:22:00,,0808.2,4.99,0.00,26.7,25.4,00.0,35.8,28.4,08.8,0000.0,0013.48,0003.84,0001.43
2022-04-23 06:23:00,,0808.1,4.99,0.00,26.6,25.3,00.0,35.8,28.4,08.7,0000.0,0013.38,0003.82,0001.42
2022-04-23 06:24:00,,0808.1,5.02,0.00,26.6,25.3,00.0,35.8,28.4,08.8,0000.0,0013.16,0003.78,0001.42
2022-04-23 06:25:00,,0808.1,4.98,0.00,26.6,25.3,00.0,35.7,28.3,08.7,0000.0,0012.01,0003.76,0001.40
2022-04-23 06:26:00,,0808.1,5.01,0.00,26.6,25.3,00.0,35.7,28.3,08.6,0000.0,0012.78,0003.70,0001.40
2022-04-23 06:27:00,,0808.2,5.00,0.00,26.6,25.3,00.0,35.7,28.2,08.3,0000.0,0012.77,0003.63,0001.39
2022-04-23 06:28:00,,0808.4,5.00,0.00,26.5,25.3,00.0,35.7,28.2,08.3,0000.0,0012.61,0003.57,0001.39
2022-04-23 06:29:00,,0808.5,4.99,0.00,26.5,25.3,00.0,35.7,28.1,08.3,0000.0,0012.83,0003.58,0001.40
2022-04-23 06:30:00,,0808.5,5.01,0.00,26.5,25.3,00.0,35.6,28.1,08.3,0000.0,0013.15,0003.62,0001.40
2022-04-23 06:31:00,,0808.7,5.00,0.00,26.4,25.2,00.0,35.6,28.0,08.2,0000.0,0013.10,0003.63,0001.39
2022-04-23 06:32:00,,0808.5,5.01,0.00,26.4,25.2,00.0,35.6,28.1,08.2,0000.0,0012.74,0003.56,0001.37
2022-04-23 06:33:00,,0808.4,5.00,0.00,26.4,25.2,00.0,35.6,28.1,08.3,0000.0,0012.04,0003.50,0001.38
2022-04-23 06:34:00,,0808.5,5.00,0.00,26.4,25.1,00.0,35.6,28.1,08.4,0000.0,0011.70,0003.49,0001.37
2022-04-23 06:35:00,,0808.6,5.00,0.00,26.3,25.1,00.0,35.5,28.0,08.4,0000.0,0010.85,0003.44,0001.35
2022-04-23 06:36:00,,0808.7,5.01,0.00,26.3,25.1,00.0,35.5,28.0,08.4,0000.0,0010.97,0003.43,0001.34
2022-04-23 06:37:00,,0808.7,4.98,0.00,26.3,25.1,00.0,35.5,27.9,08.4,0000.0,0010.09,0003.39,0001.32
2022-04-23 06:38:00,,0808.6,5.01,0.00,26.2,25.0,00.0,35.5,27.9,08.4,0000.0,0009.67,0003.37,0001.31
2022-04-23 06:39:00,,0808.6,4.99,0.00,26.2,25.0,00.0,35.4,27.9,08.4,0000.0,0009.68,0003.42,0001.30
2022-04-23 06:40:00,,0808.6,5.02,0.00,26.2,25.0,00.0,35.4,27.9,08.5,0000.0,0009.26,0003.41,0001.28
2022-04-23 06:41:00,,0808.6,4.99,0.00,26.2,24.9,00.0,35.4,27.9,08.4,0000.0,0009.66,0003.34,0001.26
2022-04-23 06:42:00,,0808.6,5.02,0.00,26.2,24.9,00.0,35.4,27.9,08.4,0000.0,0010.75,0003.31,0001.26
2022-04-23 06:43:00,,0808.6,4.99,0.00,26.2,24.9,00.0,35.3,27.9,08.2,0000.0,0010.78,0003.31,0001.28
2022-04-23 06:44:00,,0809.0,4.99,0.00,26.2,24.9,00.0,35.3,27.8,08.2,0000.0,0010.67,0003.27,0001.26
2022-04-23 06:45:00,,0809.0,5.02,0.00,26.1,24.9,00.0,35.3,27.8,08.2,0000.0,0011.27,0003.26,0001.25
2022-04-23 06:46:00,,0808.9,5.00,0.00,26.1,24.9,00.0,35.3,27.8,08.3,0000.0,0011.35,0003.27,0001.25
2022-04-23 06:47:00,,0808.9,4.99,0.00,26.1,24.9,00.0,35.3,27.8,08.5,0000.0,0011.33,0003.23,0001.24
2022-04-23 06:48:00,,0809.0,5.00,0.00,26.1,24.8,00.0,35.2,27.7,08.6,0000.0,0011.19,0003.19,0001.23
2022-04-23 06:49:00,,0808.8,4.98,0.00,26.0,24.8,00.0,35.2,27.7,08.6,0000.0,0011.18,0003.18,0001.21
2022-04-23 06:50:00,,0808.9,5.01,0.00,26.0,24.8,00.0,35.2,27.7,08.7,0000.0,0011.62,0003.06,0001.18
2022-04-23 06:51:00,,0808.8,4.98,0.00,26.0,24.8,00.0,35.2,27.7,08.7,0000.0,0011.08,0002.94,0001.17
2022-04-23 06:52:00,,0808.9,5.01,0.00,26.0,24.7,00.0,35.2,27.7,08.7,0000.0,0010.19,0002.93,0001.17
2022-04-23 06:53:00,,0809.0,5.00,0.00,25.9,24.7,00.0,35.1,27.6,08.6,0000.0,0008.97,0002.88,0001.16
2022-04-23 06:54:00,,0809.1,5.00,0.00,25.9,24.7,00.0,35.1,27.6,08.6,0000.0,0008.74,0002.76,0001.13
2022-04-23 06:55:00,,0809.1,5.00,0.00,25.9,24.7,00.0,35.1,27.5,08.6,0000.0,0008.68,0002.77,0001.12
2022-04-23 06:56:00,,0809.1,4.99,0.00,25.9,24.7,00.0,35.1,27.5,08.8,0000.0,0007.90,0002.66,0001.11
2022-04-23 06:57:00,,0809.0,5.00,0.00,25.9,24.8,00.0,35.1,27.5,08.9,0000.0,0007.72,0002.65,0001.10
2022-04-23 06:58:00,,0809.1,5.00,0.00,25.9,24.8,00.0,35.0,27.6,08.9,0000.0,0007.49,0002.67,0001.10
2022-04-23 06:59:00,,0808.9,4.99,0.00,25.9,24.7,00.0,35.0,27.5,09.0,0000.0,0007.97,0002.79,0001.11
